TDRS 3

Last updated on Mon Sep 07 2026 00:02:52 GMT+0000 (Coordinated Universal Time)

1 19548U 88091B 26249.51093622 -.00000307 00000+0 00000+0 0 9993 2 19548 12.5419 340.4547 0038404 352.2190 147.9620 1.00276922126208
UTC large
Height (km)
Speed (km/s)
/
Latitude / Longitude
Inclination (degrees)
Orbital Period (minutes)
Azimuth
Elevation
Range (km)
Doppler Factor

Next 0 passes for location: London (51.5072 / 0.1276)

No passes found over London.
TDRS 3